Location: Eaton
(41.3139°N, 82.0207°W)
Time: 02:28:41
(UTC+00:00)

Cosmos 2056 Rocket - Visible Passes

Search period start: 23 October 2021 00:00
Search period end: 02 November 2021 00:00
Orbit: 743 x 799 km, 74.0° (Epoch: 22 October)

Date Brightness Start Highest point End Pass type
(mag) Time Alt. Az. Time Alt. Az. Time Alt. Az.
23 Oct 6.3 09:55:03 10° NNE 09:57:51 14° NE 10:00:39 10° E visible
24 Oct 4.1 10:59:19 10° NNW 11:04:29 62° ENE 11:09:41 10° SSE visible
25 Oct 6.1 01:37:20 10° SW 01:37:21 10° SW 01:37:21 10° SW visible
25 Oct 5.0 10:23:25 10° N 10:28:16 37° ENE 10:33:08 10° SE visible
26 Oct 4.7 01:00:59 10° SSW 01:03:37 31° SSW 01:03:37 31° SSW visible
26 Oct 5.7 09:47:45 10° N 09:51:55 24° ENE 09:56:07 10° ESE visible
27 Oct 3.4 00:25:01 10° S 00:29:51 58° ESE 00:29:51 58° ESE visible
27 Oct 6.2 02:09:06 10° W 02:10:17 14° W 02:10:17 14° W visible
27 Oct 6.3 09:12:30 10° NNE 09:15:29 15° NE 09:18:29 10° E visible
27 Oct 3.5 10:52:59 10° NNW 10:58:12 76° WSW 11:03:29 10° SSE visible
27 Oct 4.0 23:49:27 10° SSE 23:54:01 34° E 23:56:00 25° ENE visible
28 Oct 5.2 01:31:46 10° WSW 01:36:09 28° WNW 01:36:25 28° NW visible
28 Oct 3.9 10:16:53 10° NNW 10:22:05 65° ENE 10:27:20 10° SSE visible
28 Oct 4.7 23:14:28 10° SE 23:18:08 20° E 23:21:48 10° NE visible
29 Oct 4.4 00:54:58 10° SW 00:59:52 46° WNW 01:02:24 26° N visible
29 Oct 4.8 09:40:58 10° N 09:45:52 39° ENE 09:50:49 10° SE visible
29 Oct 4.5 11:23:31 10° NW 11:27:46 25° W 11:32:02 10° SSW visible
30 Oct 3.5 00:18:35 10° SSW 00:23:41 78° WNW 00:28:09 14° NNE visible
30 Oct 6.4 02:05:32 10° WNW 02:06:42 11° NW 02:07:53 10° NW visible
30 Oct 5.6 09:05:17 10° N 09:09:33 25° ENE 09:13:52 10° ESE visible
30 Oct 3.9 10:46:54 10° NNW 10:51:50 42° WSW 10:56:48 10° S visible
30 Oct 3.4 23:42:34 10° S 23:47:36 62° ESE 23:52:38 10° NNE visible
31 Oct 6.0 01:26:50 10° W 01:30:11 17° NW 01:33:32 10° NNW visible
31 Oct 6.1 08:30:56 13° NNE 08:33:07 16° NE 08:36:18 10° E visible
31 Oct 3.4 10:11:22 15° NNW 10:15:48 72° WSW 10:21:06 10° S visible
31 Oct 4.0 23:06:59 10° SSE 23:11:36 36° ESE 23:16:14 10° NE visible
01 Nov 5.4 00:49:27 10° WSW 00:53:46 27° WNW 00:58:07 10° N visible
01 Nov 3.7 09:37:35 36° N 09:39:42 69° ENE 09:44:59 10° SSE visible
01 Nov 5.1 11:18:29 10° WNW 11:21:11 14° W 11:23:54 10° SW visible
